XRISM

Last updated on Sat Dec 13 2025 00:02:16 GMT+0000 (Coordinated Universal Time)

1 57800U 23137A 25345.64463499 .00008786 00000+0 51677-3 0 9997 2 57800 31.0009 132.6140 0007680 234.5951 125.3971 15.10326363124467
UTC large
Height (km)
Speed (km/s)
/
Latitude / Longitude
Inclination (degrees)
Orbital Period (minutes)
Azimuth
Elevation
Range (km)
Doppler Factor

Next 0 passes for location: London (51.5072 / 0.1276)

Sorry there are no passes over London.